Time,TemperatureF,DewpointF,PressureIn,WindDirection,WindDirectionDegrees,WindSpeedMPH,WindSpeedGustMPH,Humidity,HourlyPrecipIn,Conditions,Clouds,dailyrainin,SoftwareType,DateUTC
2014-03-09 00:09:00,56.0,50.0,30.16,South,176,0.0,-999.0,80,-99.99,,,0.00,weatherlink.com 1.10,2014-03-09 08:09:00,
2014-03-09 00:24:00,55.7,50.0,30.16,South,176,0.0,-999.0,81,-99.99,,,0.00,weatherlink.com 1.10,2014-03-09 08:24:00,
2014-03-09 00:39:00,55.7,50.0,30.16,South,176,0.0,-999.0,82,-99.99,,,0.00,weatherlink.com 1.10,2014-03-09 08:39:00,
2014-03-09 00:54:00,55.7,50.0,30.16,South,176,0.0,-999.0,82,-99.99,,,0.00,weatherlink.com 1.10,2014-03-09 08:54:00,
2014-03-09 01:09:00,55.7,51.0,30.16,South,176,0.0,-999.0,83,-99.99,,,0.00,weatherlink.com 1.10,2014-03-09 09:09:00,
2014-03-09 01:24:00,55.7,51.0,30.16,South,176,0.0,-999.0,83,-99.99,,,0.00,weatherlink.com 1.10,2014-03-09 09:24:00,
2014-03-09 01:39:00,55.7,51.0,30.15,South,176,0.0,-999.0,83,-99.99,,,0.00,weatherlink.com 1.10,2014-03-09 09:39:00,
2014-03-09 01:54:00,55.8,51.0,30.14,South,176,0.0,-999.0,84,-99.99,,,0.00,weatherlink.com 1.10,2014-03-09 09:54:00,
2014-03-09 03:09:00,55.8,51.0,30.14,South,176,0.0,-999.0,84,-99.99,,,0.00,weatherlink.com 1.10,2014-03-09 10:09:00,
2014-03-09 03:25:00,55.8,51.0,30.14,South,176,0.0,-999.0,84,-99.99,,,0.00,weatherlink.com 1.10,2014-03-09 10:25:00,
2014-03-09 03:40:00,55.9,51.0,30.13,South,176,0.0,-999.0,84,-99.99,,,0.00,weatherlink.com 1.10,2014-03-09 10:40:00,
2014-03-09 03:55:00,56.1,51.0,30.14,South,176,0.0,-999.0,84,-99.99,,,0.00,weatherlink.com 1.10,2014-03-09 10:55:00,
2014-03-09 04:10:00,56.1,51.0,30.14,South,176,0.0,-999.0,84,-99.99,,,0.00,weatherlink.com 1.10,2014-03-09 11:10:00,
2014-03-09 04:25:00,56.1,51.0,30.14,South,176,0.0,-999.0,84,-99.99,,,0.00,weatherlink.com 1.10,2014-03-09 11:25:00,
2014-03-09 04:40:00,56.8,51.0,30.13,South,175,0.0,-999.0,81,-99.99,,,0.00,weatherlink.com 1.10,2014-03-09 11:40:00,
2014-03-09 04:55:00,56.9,52.0,30.14,South,175,0.0,-999.0,82,-99.99,,,0.00,weatherlink.com 1.10,2014-03-09 11:55:00,
2014-03-09 05:10:00,56.7,51.0,30.13,South,175,0.0,-999.0,82,-99.99,,,0.00,weatherlink.com 1.10,2014-03-09 12:10:00,
2014-03-09 05:25:00,57.1,51.0,30.12,ESE,123,0.0,-999.0,80,-99.99,,,0.00,weatherlink.com 1.10,2014-03-09 12:25:00,
2014-03-09 05:40:00,56.9,52.0,30.12,ESE,123,0.0,-999.0,82,-99.99,,,0.00,weatherlink.com 1.10,2014-03-09 12:40:00,
2014-03-09 05:55:00,56.3,51.0,30.12,ESE,123,0.0,-999.0,82,-99.99,,,0.00,weatherlink.com 1.10,2014-03-09 12:55:00,
2014-03-09 06:10:00,55.7,51.0,30.12,ESE,123,0.0,-999.0,83,-99.99,,,0.00,weatherlink.com 1.10,2014-03-09 13:10:00,
2014-03-09 06:25:00,55.1,50.0,30.12,ESE,123,0.0,-999.0,83,-99.99,,,0.00,weatherlink.com 1.10,2014-03-09 13:25:00,
2014-03-09 06:40:00,54.9,51.0,30.12,ESE,123,0.0,-999.0,85,-99.99,,,0.00,weatherlink.com 1.10,2014-03-09 13:40:00,
2014-03-09 06:55:00,54.7,50.0,30.13,ESE,123,0.0,-999.0,84,-99.99,,,0.00,weatherlink.com 1.10,2014-03-09 13:55:00,
2014-03-09 07:10:00,54.2,50.0,30.13,ESE,117,0.0,-999.0,85,-99.99,,,0.00,weatherlink.com 1.10,2014-03-09 14:10:00,
2014-03-09 07:25:00,54.8,50.0,30.13,NNE,24,0.0,-999.0,84,-99.99,,,0.00,weatherlink.com 1.10,2014-03-09 14:25:00,
2014-03-09 07:40:00,55.3,50.0,30.13,North,360,0.0,-999.0,83,-99.99,,,0.00,weatherlink.com 1.10,2014-03-09 14:40:00,
2014-03-09 07:55:00,55.7,50.0,30.13,NNE,31,0.0,-999.0,82,-99.99,,,0.00,weatherlink.com 1.10,2014-03-09 14:55:00,
2014-03-09 08:10:00,56.0,51.0,30.13,NNE,31,0.0,-999.0,83,-99.99,,,0.00,weatherlink.com 1.10,2014-03-09 15:10:00,
2014-03-09 08:25:00,56.0,51.0,30.14,NNE,31,0.0,-999.0,84,-99.99,,,0.00,weatherlink.com 1.10,2014-03-09 15:25:00,
2014-03-09 08:40:00,56.5,52.0,30.14,NNE,31,0.0,-999.0,85,-99.99,,,0.00,weatherlink.com 1.10,2014-03-09 15:40:00,
2014-03-09 08:55:00,56.6,52.0,30.14,NNE,31,0.0,-999.0,83,-99.99,,,0.00,weatherlink.com 1.10,2014-03-09 15:55:00,
2014-03-09 09:10:00,56.8,52.0,30.14,NNE,31,0.0,-999.0,83,-99.99,,,0.00,weatherlink.com 1.10,2014-03-09 16:10:00,
2014-03-09 09:25:00,57.1,52.0,30.14,NNE,31,0.0,-999.0,84,-99.99,,,0.00,weatherlink.com 1.10,2014-03-09 16:25:00,
2014-03-09 09:40:00,57.5,52.0,30.14,ESE,123,0.0,-999.0,83,-99.99,,,0.00,weatherlink.com 1.10,2014-03-09 16:40:00,
2014-03-09 09:55:00,58.0,53.0,30.14,East,84,0.0,-999.0,83,-99.99,,,0.00,weatherlink.com 1.10,2014-03-09 16:55:00,
2014-03-09 10:10:00,58.4,53.0,30.14,SE,125,0.0,-999.0,82,-99.99,,,0.00,weatherlink.com 1.10,2014-03-09 17:10:00,
2014-03-09 10:25:00,59.1,53.0,30.14,South,180,0.0,-999.0,79,-99.99,,,0.00,weatherlink.com 1.10,2014-03-09 17:25:00,
2014-03-09 10:40:00,60.1,54.0,30.14,South,179,0.0,-999.0,79,-99.99,,,0.00,weatherlink.com 1.10,2014-03-09 17:40:00,
2014-03-09 10:55:00,61.3,53.0,30.14,South,180,0.0,-999.0,75,-99.99,,,0.00,weatherlink.com 1.10,2014-03-09 17:55:00,
2014-03-09 11:10:00,62.4,53.0,30.14,South,180,0.0,-999.0,72,-99.99,,,0.00,weatherlink.com 1.10,2014-03-09 18:10:00,
2014-03-09 11:25:00,64.5,56.0,30.13,South,183,1.0,-999.0,73,-99.99,,,0.00,weatherlink.com 1.10,2014-03-09 18:25:00,
2014-03-09 11:40:00,66.6,56.0,30.14,South,183,0.0,-999.0,68,-99.99,,,0.00,weatherlink.com 1.10,2014-03-09 18:40:00,
2014-03-09 11:55:00,67.7,55.0,30.13,South,177,0.0,-999.0,65,-99.99,,,0.00,weatherlink.com 1.10,2014-03-09 18:55:00,
2014-03-09 12:10:00,69.0,57.0,30.12,South,176,0.0,-999.0,66,-99.99,,,0.00,weatherlink.com 1.10,2014-03-09 19:10:00,
2014-03-09 12:25:00,69.5,56.0,30.12,South,176,0.0,-999.0,62,-99.99,,,0.00,weatherlink.com 1.10,2014-03-09 19:25:00,
2014-03-09 12:41:00,71.2,56.0,30.11,South,177,2.0,-999.0,59,-99.99,,,0.00,weatherlink.com 1.10,2014-03-09 19:41:00,
2014-03-09 12:56:00,71.4,55.0,30.11,South,178,0.0,-999.0,57,-99.99,,,0.00,weatherlink.com 1.10,2014-03-09 19:56:00,
2014-03-09 13:11:00,71.7,55.0,30.10,South,178,2.0,-999.0,57,-99.99,,,0.00,weatherlink.com 1.10,2014-03-09 20:11:00,
2014-03-09 13:26:00,72.5,55.0,30.10,South,189,0.0,-999.0,54,-99.99,,,0.00,weatherlink.com 1.10,2014-03-09 20:26:00,
2014-03-09 13:41:00,72.5,55.0,30.09,SSW,192,0.0,-999.0,54,-99.99,,,0.00,weatherlink.com 1.10,2014-03-09 20:41:00,
2014-03-09 13:56:00,73.0,54.0,30.09,SSW,192,0.0,-999.0,52,-99.99,,,0.00,weatherlink.com 1.10,2014-03-09 20:56:00,
2014-03-09 14:11:00,73.2,54.0,30.08,South,191,2.0,-999.0,52,-99.99,,,0.00,weatherlink.com 1.10,2014-03-09 21:11:00,
2014-03-09 14:26:00,73.3,53.0,30.07,South,191,0.0,-999.0,50,-99.99,,,0.00,weatherlink.com 1.10,2014-03-09 21:26:00,
2014-03-09 14:41:00,73.6,56.0,30.07,South,191,0.0,-999.0,54,-99.99,,,0.00,weatherlink.com 1.10,2014-03-09 21:41:00,
2014-03-09 14:56:00,74.2,56.0,30.07,South,191,0.0,-999.0,53,-99.99,,,0.00,weatherlink.com 1.10,2014-03-09 21:56:00,
2014-03-09 15:11:00,73.6,55.0,30.06,South,191,1.0,-999.0,52,-99.99,,,0.00,weatherlink.com 1.10,2014-03-09 22:11:00,
2014-03-09 15:26:00,72.9,56.0,30.05,South,191,3.0,-999.0,56,-99.99,,,0.00,weatherlink.com 1.10,2014-03-09 22:26:00,
2014-03-09 15:41:00,74.5,59.0,30.05,NNW,345,1.0,-999.0,58,-99.99,,,0.00,weatherlink.com 1.10,2014-03-09 22:41:00,
2014-03-09 15:56:00,75.9,58.0,30.05,NW,313,0.0,-999.0,55,-99.99,,,0.00,weatherlink.com 1.10,2014-03-09 22:56:00,
2014-03-09 16:11:00,78.3,58.0,30.04,NNW,337,3.0,-999.0,49,-99.99,,,0.00,weatherlink.com 1.10,2014-03-09 23:11:00,
2014-03-09 16:26:00,77.5,58.0,30.04,West,275,1.0,-999.0,51,-99.99,,,0.00,weatherlink.com 1.10,2014-03-09 23:26:00,
2014-03-09 16:41:00,75.5,59.0,30.04,NW,316,1.0,-999.0,56,-99.99,,,0.00,weatherlink.com 1.10,2014-03-09 23:41:00,
2014-03-09 16:56:00,75.3,58.0,30.04,NW,323,1.0,-999.0,56,-99.99,,,0.00,weatherlink.com 1.10,2014-03-09 23:56:00,
2014-03-09 17:11:00,74.1,58.0,30.04,WNW,287,0.0,-999.0,58,-99.99,,,0.00,weatherlink.com 1.10,2014-03-10 00:11:00,
2014-03-09 17:26:00,72.4,58.0,30.04,NW,312,2.0,-999.0,61,-99.99,,,0.00,weatherlink.com 1.10,2014-03-10 00:26:00,
2014-03-09 17:41:00,71.4,58.0,30.03,WNW,291,0.0,-999.0,62,-99.99,,,0.00,weatherlink.com 1.10,2014-03-10 00:41:00,
2014-03-09 17:56:00,70.8,57.0,30.03,NW,306,3.0,-999.0,63,-99.99,,,0.00,weatherlink.com 1.10,2014-03-10 00:56:00,
2014-03-09 18:11:00,69.9,58.0,30.03,WNW,300,0.0,-999.0,66,-99.99,,,0.00,weatherlink.com 1.10,2014-03-10 01:11:00,
2014-03-09 18:26:00,69.3,58.0,30.03,WNW,300,0.0,-999.0,67,-99.99,,,0.00,weatherlink.com 1.10,2014-03-10 01:26:00,
2014-03-09 18:41:00,68.7,58.0,30.04,WNW,298,0.0,-999.0,68,-99.99,,,0.00,weatherlink.com 1.10,2014-03-10 01:41:00,
2014-03-09 18:56:00,67.9,57.0,30.04,WNW,298,0.0,-999.0,69,-99.99,,,0.00,weatherlink.com 1.10,2014-03-10 01:56:00,
2014-03-09 19:11:00,67.0,57.0,30.04,WNW,298,0.0,-999.0,71,-99.99,,,0.00,weatherlink.com 1.10,2014-03-10 02:11:00,
2014-03-09 19:26:00,66.0,57.0,30.05,WNW,299,0.0,-999.0,73,-99.99,,,0.00,weatherlink.com 1.10,2014-03-10 02:26:00,
2014-03-09 19:41:00,65.2,57.0,30.05,WNW,300,0.0,-999.0,74,-99.99,,,0.00,weatherlink.com 1.10,2014-03-10 02:41:00,
2014-03-09 19:56:00,64.7,57.0,30.05,NW,304,0.0,-999.0,75,-99.99,,,0.00,weatherlink.com 1.10,2014-03-10 02:56:00,
2014-03-09 20:11:00,64.2,57.0,30.05,NW,304,0.0,-999.0,76,-99.99,,,0.00,weatherlink.com 1.10,2014-03-10 03:11:00,
2014-03-09 20:26:00,63.5,57.0,30.05,NW,304,0.0,-999.0,78,-99.99,,,0.00,weatherlink.com 1.10,2014-03-10 03:26:00,
2014-03-09 20:41:00,62.8,56.0,30.06,NW,304,0.0,-999.0,79,-99.99,,,0.00,weatherlink.com 1.10,2014-03-10 03:41:00,
2014-03-09 20:56:00,62.7,56.0,30.05,NW,304,2.0,-999.0,80,-99.99,,,0.00,weatherlink.com 1.10,2014-03-10 03:56:00,
2014-03-09 21:11:00,62.3,53.0,30.06,WNW,303,0.0,-999.0,72,-99.99,,,0.00,weatherlink.com 1.10,2014-03-10 04:11:00,
2014-03-09 21:26:00,62.4,51.0,30.06,WNW,303,0.0,-999.0,66,-99.99,,,0.00,weatherlink.com 1.10,2014-03-10 04:26:00,
2014-03-09 21:41:00,62.5,50.0,30.07,WNW,303,0.0,-999.0,65,-99.99,,,0.00,weatherlink.com 1.10,2014-03-10 04:41:00,
2014-03-09 21:56:00,62.0,50.0,30.08,NW,313,0.0,-999.0,65,-99.99,,,0.00,weatherlink.com 1.10,2014-03-10 04:56:00,
2014-03-09 22:11:00,61.6,49.0,30.09,NW,317,0.0,-999.0,63,-99.99,,,0.00,weatherlink.com 1.10,2014-03-10 05:11:00,
2014-03-09 22:26:00,61.1,48.0,30.09,NW,317,0.0,-999.0,63,-99.99,,,0.00,weatherlink.com 1.10,2014-03-10 05:26:00,
2014-03-09 22:41:00,60.5,49.0,30.09,NW,317,0.0,-999.0,65,-99.99,,,0.00,weatherlink.com 1.10,2014-03-10 05:41:00,
2014-03-09 22:56:00,60.3,48.0,30.09,NW,310,0.0,-999.0,65,-99.99,,,0.00,weatherlink.com 1.10,2014-03-10 05:56:00,
2014-03-09 23:11:00,59.9,48.0,30.09,NW,310,0.0,-999.0,66,-99.99,,,0.00,weatherlink.com 1.10,2014-03-10 06:11:00,
2014-03-09 23:26:00,59.4,49.0,30.08,NW,310,0.0,-999.0,68,-99.99,,,0.00,weatherlink.com 1.10,2014-03-10 06:26:00,
2014-03-09 23:41:00,58.9,49.0,30.09,NW,310,0.0,-999.0,69,-99.99,,,0.00,weatherlink.com 1.10,2014-03-10 06:41:00,
2014-03-09 23:56:00,58.8,49.0,30.09,NW,310,0.0,-999.0,69,-99.99,,,0.00,weatherlink.com 1.10,2014-03-10 06:56:00,